Time,TemperatureF,DewpointF,PressureIn,WindDirection,WindDirectionDegrees,WindSpeedMPH,WindSpeedGustMPH,Humidity,HourlyPrecipIn,Conditions,Clouds,dailyrainin,SoftwareType,DateUTC
2013-03-07 11:59:00,37.8,22.6,29.93,WNW,293,4.3,4.3,54,0.00,,,0.00,WUHU216HW,2013-03-07 16:59:00,
2013-03-07 12:04:00,37.6,22.0,29.93,WNW,293,2.5,4.3,53,0.00,,,0.00,WUHU216HW,2013-03-07 17:04:00,
2013-03-07 12:05:00,37.6,22.0,29.93,WNW,293,2.5,4.3,53,0.00,,,0.00,WUHU216HW,2013-03-07 17:05:00,
2013-03-07 12:09:00,37.6,22.0,29.93,WNW,293,2.5,4.3,53,0.00,,,0.00,WUHU216HW,2013-03-07 17:09:00,
2013-03-07 12:10:00,37.6,22.0,29.93,WNW,293,2.5,2.5,53,0.00,,,0.00,WUHU216HW,2013-03-07 17:10:00,
2013-03-07 12:30:00,37.1,21.5,29.93,NW,315,2.9,2.9,53,0.00,,,0.00,WUHU216HW,2013-03-07 17:30:00,
2013-03-07 12:31:00,37.1,21.5,29.93,NW,315,2.9,2.9,53,0.00,,,0.00,WUHU216HW,2013-03-07 17:31:00,
2013-03-07 12:35:00,37.1,21.5,29.93,NW,315,2.9,2.9,53,0.00,,,0.00,WUHU216HW,2013-03-07 17:35:00,
2013-03-07 12:36:00,37.1,21.5,29.93,NW,315,2.9,2.9,53,0.00,,,0.00,WUHU216HW,2013-03-07 17:36:00,
2013-03-07 12:59:00,37.8,22.1,29.92,NNW,338,1.1,1.1,53,0.00,,,0.00,WUHU216HW,2013-03-07 17:59:00,
2013-03-07 13:04:00,37.8,22.1,29.92,NNW,338,1.1,1.1,53,0.00,,,0.00,WUHU216HW,2013-03-07 18:04:00,
2013-03-07 13:29:00,37.8,22.1,29.92,WNW,293,4.0,4.0,53,0.00,,,0.00,WUHU216HW,2013-03-07 18:29:00,
2013-03-07 13:34:00,37.8,22.1,29.92,WNW,293,4.0,4.0,53,0.00,,,0.00,WUHU216HW,2013-03-07 18:34:00,
2013-03-07 13:35:00,37.8,22.1,29.92,WNW,293,4.0,4.0,53,0.00,,,0.00,WUHU216HW,2013-03-07 18:35:00,
2013-03-07 13:59:00,37.3,21.3,29.92,NNW,338,3.1,3.1,52,0.00,,,0.00,WUHU216HW,2013-03-07 18:59:00,
2013-03-07 14:04:00,37.3,21.3,29.92,NNW,338,3.1,3.1,52,0.00,,,0.00,WUHU216HW,2013-03-07 19:04:00,
2013-03-07 14:05:00,37.3,21.3,29.92,NNW,338,3.1,3.1,52,0.00,,,0.00,WUHU216HW,2013-03-07 19:05:00,
2013-03-07 14:29:00,36.4,18.6,29.92,NW,315,3.8,3.8,48,0.00,,,0.00,WUHU216HW,2013-03-07 19:29:00,
2013-03-07 14:30:00,36.4,18.6,29.92,NW,315,3.8,3.8,48,0.00,,,0.00,WUHU216HW,2013-03-07 19:30:00,
2013-03-07 14:32:00,36.4,18.6,29.92,NW,315,3.8,3.8,48,0.00,,,0.00,WUHU216HW,2013-03-07 19:32:00,
2013-03-07 14:35:00,36.4,18.6,29.92,NW,315,3.8,3.8,48,0.00,,,0.00,WUHU216HW,2013-03-07 19:35:00,
2013-03-07 14:37:00,36.4,18.6,29.92,NW,315,3.8,3.8,48,0.00,,,0.00,WUHU216HW,2013-03-07 19:37:00,
2013-03-07 14:59:00,36.0,16.1,29.93,North,0,0.7,0.7,44,0.00,,,0.00,WUHU216HW,2013-03-07 19:59:00,
2013-03-07 15:04:00,36.0,16.1,29.93,North,0,0.7,0.7,44,0.00,,,0.00,WUHU216HW,2013-03-07 20:04:00,
2013-03-07 15:05:00,36.0,16.1,29.93,North,0,0.7,0.7,44,0.00,,,0.00,WUHU216HW,2013-03-07 20:05:00,
2013-03-07 15:29:00,34.6,-1.5,29.93,WNW,293,5.6,5.6,21,0.00,,,0.00,WUHU216HW,2013-03-07 20:29:00,
2013-03-07 15:30:00,34.6,-1.5,29.93,WNW,293,5.6,5.6,21,0.00,,,0.00,WUHU216HW,2013-03-07 20:30:00,
2013-03-07 15:34:00,34.6,-1.5,29.93,WNW,293,5.6,5.6,21,0.00,,,0.00,WUHU216HW,2013-03-07 20:34:00,
2013-03-07 15:35:00,34.6,-1.5,29.93,WNW,293,5.6,5.6,21,0.00,,,0.00,WUHU216HW,2013-03-07 20:35:00,
2013-03-07 15:59:00,34.4,-11.1,29.94,West,270,3.8,3.8,14,0.00,,,0.00,WUHU216HW,2013-03-07 20:59:00,
2013-03-07 16:00:00,34.4,-11.1,29.94,West,270,3.8,3.8,14,0.00,,,0.00,WUHU216HW,2013-03-07 21:00:00,
2013-03-07 16:04:00,34.4,-11.1,29.94,West,270,3.8,3.8,14,0.00,,,0.00,WUHU216HW,2013-03-07 21:04:00,
2013-03-07 16:05:00,34.4,-11.1,29.94,West,270,3.8,3.8,14,0.00,,,0.00,WUHU216HW,2013-03-07 21:05:00,